Tracking 27405 objects as of 1-Jun-2023
HD Live streaming from Space Station
objects crossing your sky now

STARLINK-3082

Track STARLINK-3082 now!
10-day predictions
STARLINK-3082 is classified as:


NORAD ID: 49162
Int'l Code: 2021-082AJ
Perigee: 577.0 km
Apogee: 581.4 km
Inclination: 70.0 °
Period: 96.1 minutes
Semi major axis: 6950 km
RCS: Unknown
Launch date: September 14, 2021
Source: United States (US)
Launch site: AIR FORCE WESTERN TEST RANGE (AFWTR)
Your satellite tracking list
Your tracking list is empty




NASA's NSSDC Master Catalog

Two Line Element Set (TLE):
1 49162U 21082AJ  23151.92348420  .00000717  00000-0  67876-4 0  9992
2 49162  69.9985 327.9861 0003208 268.3265  91.7527 14.98331963 95430
Source of the keplerian elements: AFSPC